,,Stat6,,Stat2,,Stat8,,Stat9,,Stat10,,Wind1,,Wind1,
time,status,PA1M_AVG,status,PR1M_SUM,status,RH1M_AVG,status,SR1M_AVG,status,TA1M_AVG,status,W1dAve1m,status,W1sAve1m,
2007-07-26, 00:00:00,VALID,916.501,VALID,0,VALID,95.7289,VALID,-0.101885,VALID,19.8743,VALID,119,VALID,1.14196,
2007-07-26, 00:01:00,VALID,916.483,VALID,0,VALID,95.6399,VALID,-0.0679233,VALID,19.8935,VALID,115,VALID,1.26391,
2007-07-26, 00:02:00,VALID,916.489,VALID,0,VALID,95.3742,VALID,-0.0849042,VALID,19.9264,VALID,120,VALID,1.25553,
2007-07-26, 00:03:00,VALID,916.475,VALID,0,VALID,95.2355,VALID,-0.101885,VALID,19.9456,VALID,119,VALID,1.29421,
2007-07-26, 00:04:00,VALID,916.455,VALID,0,VALID,95.0868,VALID,-0.0679233,VALID,19.9489,VALID,116,VALID,1.27988,
2007-07-26, 00:05:00,VALID,916.442,VALID,0,VALID,95.3602,VALID,-0.0509425,VALID,20.0043,VALID,114,VALID,1.637,
2007-07-26, 00:06:00,VALID,916.428,VALID,0,VALID,94.8795,VALID,-0.0679233,VALID,20.0819,VALID,113,VALID,1.42359,
2007-07-26, 00:07:00,VALID,916.405,VALID,0,VALID,94.3454,VALID,-0.0509425,VALID,20.1111,VALID,100,VALID,0.991997,
2007-07-26, 00:08:00,VALID,916.387,VALID,0,VALID,94.348,VALID,-0.101885,VALID,20.0854,VALID,101,VALID,0.87593,
2007-07-26, 00:09:00,VALID,916.401,VALID,0,VALID,94.5985,VALID,-0.0339617,VALID,20.0854,VALID,110,VALID,1.08441,
2007-07-26, 00:10:00,VALID,916.394,VALID,0,VALID,94.3111,VALID,-0.0849042,VALID,20.0757,VALID,106,VALID,0.812119,
2007-07-26, 00:11:00,VALID,916.386,VALID,0,VALID,94.2157,VALID,-0.0849042,VALID,20.0108,VALID,94,VALID,0.878729,
2007-07-26, 00:12:00,VALID,916.395,VALID,0,VALID,94.3467,VALID,-0.0849042,VALID,19.9491,VALID,89,VALID,0.961664,
2007-07-26, 00:13:00,VALID,916.404,VALID,0,VALID,94.6544,VALID,-0.0849042,VALID,19.8713,VALID,84,VALID,1.14262,
2007-07-26, 00:14:00,VALID,916.419,VALID,0,VALID,95.2178,VALID,-0.0849042,VALID,19.8258,VALID,101,VALID,1.13262,
2007-07-26, 00:15:00,VALID,916.408,VALID,0,VALID,95.5776,VALID,-0.101885,VALID,19.8094,VALID,108,VALID,0.941211,
2007-07-26, 00:16:00,VALID,916.405,VALID,0,VALID,95.6908,VALID,-0.101885,VALID,19.7964,VALID,125,VALID,0.963481,
2007-07-26, 00:17:00,VALID,916.409,VALID,0,VALID,95.7455,VALID,-0.101885,VALID,19.7642,VALID,130,VALID,0.801136,
2007-07-26, 00:18:00,VALID,916.392,VALID,0,VALID,96.0201,VALID,-0.101885,VALID,19.738,VALID,117,VALID,0.935369,
2007-07-26, 00:19:00,VALID,916.373,VALID,0,VALID,96.0799,VALID,-0.0849042,VALID,19.7018,VALID,117,VALID,0.836124,
2007-07-26, 00:20:00,VALID,916.355,VALID,0,VALID,96.0926,VALID,-0.101885,VALID,19.6569,VALID,141,VALID,1.08066,
2007-07-26, 00:21:00,VALID,916.323,VALID,0,VALID,96.3647,VALID,-0.0849042,VALID,19.5987,VALID,153,VALID,1.37168,
2007-07-26, 00:22:00,VALID,916.29,VALID,0,VALID,96.8149,VALID,-0.0849042,VALID,19.5561,VALID,148,VALID,1.39226,
2007-07-26, 00:23:00,VALID,916.26,VALID,0,VALID,97.0552,VALID,-0.0849042,VALID,19.5338,VALID,141,VALID,1.21354,
2007-07-26, 00:24:00,VALID,916.234,VALID,0,VALID,97.3986,VALID,-0.0849042,VALID,19.5079,VALID,140,VALID,1.33882,
2007-07-26, 00:25:00,VALID,916.207,VALID,0,VALID,97.5918,VALID,-0.0509425,VALID,19.5044,VALID,132,VALID,1.22266,
2007-07-26, 00:26:00,VALID,916.208,VALID,0,VALID,97.7368,VALID,-0.101885,VALID,19.4852,VALID,116,VALID,1.16406,
2007-07-26, 00:27:00,VALID,916.198,VALID,0,VALID,97.6338,VALID,-0.0679233,VALID,19.459,VALID,105,VALID,1.04088,
2007-07-26, 00:28:00,VALID,916.206,VALID,0,VALID,97.822,VALID,-0.0849042,VALID,19.4263,VALID,110,VALID,1.1635,
2007-07-26, 00:29:00,VALID,916.194,VALID,0,VALID,97.9975,VALID,-0.101885,VALID,19.4395,VALID,113,VALID,1.30741,
2007-07-26, 00:30:00,VALID,916.203,VALID,0,VALID,98.0865,VALID,-0.0849042,VALID,19.4657,VALID,127,VALID,1.22567,
2007-07-26, 00:31:00,VALID,916.209,VALID,0,VALID,97.8843,VALID,-0.0679233,VALID,19.4814,VALID,130,VALID,0.975632,
2007-07-26, 00:32:00,VALID,916.221,VALID,0,VALID,97.8207,VALID,-0.0849042,VALID,19.5109,VALID,130,VALID,0.795686,
2007-07-26, 00:33:00,VALID,916.237,VALID,0,VALID,97.6936,VALID,-0.0849042,VALID,19.5209,VALID,130,VALID,0.56468,
2007-07-26, 00:34:00,VALID,916.261,VALID,0,VALID,97.6351,VALID,-0.0849042,VALID,19.5338,VALID,130,VALID,0.713601,
2007-07-26, 00:35:00,VALID,916.288,VALID,0,VALID,97.5677,VALID,-0.0509425,VALID,19.5436,VALID,151,VALID,0.740663,
2007-07-26, 00:36:00,VALID,916.288,VALID,0,VALID,97.485,VALID,-0.101885,VALID,19.5436,VALID,159,VALID,0.706745,
2007-07-26, 00:37:00,VALID,916.293,VALID,0,VALID,97.3718,VALID,-0.0509425,VALID,19.5271,VALID,160,VALID,0.662109,
2007-07-26, 00:38:00,VALID,916.291,VALID,0,VALID,97.3159,VALID,-0.0509425,VALID,19.5011,VALID,165,VALID,0.500186,
2007-07-26, 00:39:00,VALID,916.286,VALID,0,VALID,97.2612,VALID,-0.0509425,VALID,19.4787,VALID,172,VALID,0.286882,
2007-07-26, 00:40:00,VALID,916.293,VALID,0,VALID,97.2841,VALID,-0.0679233,VALID,19.446,VALID,172,VALID,0.318182,
2007-07-26, 00:41:00,VALID,916.303,VALID,0,VALID,97.4545,VALID,-0.0679233,VALID,19.4235,VALID,172,VALID,0.366443,
2007-07-26, 00:42:00,VALID,916.305,VALID,0,VALID,97.2727,VALID,-0.0509425,VALID,19.3906,VALID,208,VALID,0.308594,
2007-07-26, 00:43:00,VALID,916.329,VALID,0,VALID,97.2409,VALID,-0.0509425,VALID,19.3352,VALID,229,VALID,0.115625,
2007-07-26, 00:44:00,VALID,916.342,VALID,0,VALID,97.4939,VALID,-0.0849042,VALID,19.313,VALID,229,VALID,0.229687,
2007-07-26, 00:45:00,VALID,916.357,VALID,0,VALID,97.8678,VALID,-0.0169808,VALID,19.2873,VALID,243,VALID,0.423328,
2007-07-26, 00:46:00,VALID,916.362,VALID,0,VALID,98.1157,VALID,-0.0509425,VALID,19.2578,VALID,247,VALID,0.379464,
2007-07-26, 00:47:00,VALID,916.38,VALID,0,VALID,98.3993,VALID,-0.0339617,VALID,19.2381,VALID,247,VALID,0.127046,
2007-07-26, 00:48:00,VALID,916.386,VALID,0,VALID,98.4998,VALID,-0.0679233,VALID,19.2189,VALID,247,VALID,0,
2007-07-26, 00:49:00,VALID,916.376,VALID,0,VALID,98.398,VALID,-0.0339617,VALID,19.18,VALID,247,VALID,0,
2007-07-26, 00:50:00,VALID,916.386,VALID,0,VALID,98.6104,VALID,-0.0169808,VALID,19.1438,VALID,247,VALID,0,
2007-07-26, 00:51:00,VALID,916.377,VALID,0,VALID,98.6256,VALID,-0.0509425,VALID,19.1049,VALID,247,VALID,0,
2007-07-26, 00:52:00,VALID,916.375,VALID,0,VALID,98.5595,VALID,-0.0339617,VALID,19.0694,VALID,247,VALID,0,
2007-07-26, 00:53:00,VALID,916.379,VALID,0,VALID,98.4413,VALID,-0.0679233,VALID,19.014,VALID,247,VALID,0,
2007-07-26, 00:54:00,VALID,916.377,VALID,0,VALID,97.8233,VALID,-0.0679233,VALID,18.914,VALID,247,VALID,0,
2007-07-26, 00:55:00,VALID,916.364,VALID,0,VALID,97.1722,VALID,-0.0679233,VALID,18.7126,VALID,247,VALID,0.243096,
2007-07-26, 00:56:00,VALID,916.348,VALID,0,VALID,97.8347,VALID,-0.0509425,VALID,18.622,VALID,247,VALID,0.446987,
2007-07-26, 00:57:00,VALID,916.335,VALID,0,VALID,98.9881,VALID,-0.0679233,VALID,18.6415,VALID,247,VALID,0.485085,
2007-07-26, 00:58:00,VALID,916.31,VALID,0,VALID,99.718,VALID,-0.0339617,VALID,18.6735,VALID,247,VALID,0.604688,
2007-07-26, 00:59:00,VALID,916.294,VALID,0,VALID,99.9725,VALID,-0.0339617,VALID,18.6892,VALID,247,VALID,0.643169,
2007-07-26, 01:00:00,VALID,916.285,VALID,0,VALID,100,VALID,-0.0679233,VALID,18.7583,VALID,247,VALID,0.814317,
2007-07-26, 01:01:00,VALID,916.237,VALID,0,VALID,100,VALID,-0.0849042,VALID,18.8426,VALID,247,VALID,0.7996,
2007-07-26, 01:02:00,VALID,916.197,VALID,0,VALID,100,VALID,-0.0849042,VALID,18.9237,VALID,110,VALID,0.84266,
2007-07-26, 01:03:00,VALID,916.168,VALID,0,VALID,100,VALID,-0.0849042,VALID,18.9561,VALID,73,VALID,0.802827,
2007-07-26, 01:04:00,VALID,916.122,VALID,0,VALID,100,VALID,-0.0679233,VALID,18.9561,VALID,73,VALID,0.634811,
2007-07-26, 01:05:00,VALID,916.104,VALID,0,VALID,100,VALID,-0.101885,VALID,18.9494,VALID,84,VALID,0.832227,
2007-07-26, 01:06:00,VALID,916.081,VALID,0,VALID,100,VALID,-0.101885,VALID,19.0243,VALID,96,VALID,1.1635,
2007-07-26, 01:07:00,VALID,916.05,VALID,0,VALID,100,VALID,-0.0849042,VALID,19.138,VALID,100,VALID,1.16202,
2007-07-26, 01:08:00,VALID,916.031,VALID,0,VALID,99.8917,VALID,-0.0849042,VALID,19.2027,VALID,110,VALID,1.28434,
2007-07-26, 01:09:01,VALID,916.017,VALID,0,VALID,99.5425,VALID,-0.101885,VALID,19.2281,VALID,107,VALID,1.08013,
2007-07-26, 01:10:00,VALID,916,VALID,0,VALID,99.1089,VALID,-0.0849042,VALID,19.2418,VALID,106,VALID,1.19656,
2007-07-26, 01:11:00,VALID,915.995,VALID,0,VALID,98.7388,VALID,-0.0849042,VALID,19.1762,VALID,104,VALID,1.07724,
2007-07-26, 01:12:01,VALID,915.991,VALID,0,VALID,98.8736,VALID,-0.0679233,VALID,19.1276,VALID,105,VALID,1.38209,
2007-07-26, 01:13:00,VALID,915.981,VALID,0,VALID,98.927,VALID,-0.0679233,VALID,19.0859,VALID,102,VALID,1.48056,
2007-07-26, 01:14:00,VALID,915.974,VALID,0,VALID,99.2487,VALID,-0.0849042,VALID,19.0597,VALID,110,VALID,1.57254,
2007-07-26, 01:15:00,VALID,915.96,VALID,0,VALID,99.5145,VALID,-0.0509425,VALID,19.0328,VALID,114,VALID,1.7077,
2007-07-26, 01:16:00,VALID,915.938,VALID,0,VALID,99.7663,VALID,-0.0339617,VALID,19.027,VALID,112,VALID,1.34928,
2007-07-26, 01:17:00,VALID,915.908,VALID,0,VALID,99.9692,VALID,-0.0509425,VALID,19.0201,VALID,108,VALID,1.47493,
2007-07-26, 01:18:00,VALID,915.884,VALID,0,VALID,99.999,VALID,-0.0509425,VALID,19.0275,VALID,106,VALID,1.25309,
2007-07-26, 01:19:00,VALID,915.865,VALID,0,VALID,99.9639,VALID,-0.0509425,VALID,18.9814,VALID,106,VALID,1.12708,
2007-07-26, 01:20:00,VALID,915.831,VALID,0,VALID,99.9565,VALID,-0.0679233,VALID,18.9362,VALID,107,VALID,1.16484,
2007-07-26, 01:21:00,VALID,915.8,VALID,0,VALID,99.9964,VALID,-0.0339617,VALID,18.8773,VALID,108,VALID,1.1479,
2007-07-26, 01:22:00,VALID,915.776,VALID,0,VALID,100,VALID,-0.0339617,VALID,18.8386,VALID,110,VALID,1.12624,
2007-07-26, 01:23:00,VALID,915.748,VALID,0,VALID,100,VALID,-0.0509425,VALID,18.7868,VALID,105,VALID,1.00709,
2007-07-26, 01:24:00,VALID,915.723,VALID,0,VALID,100,VALID,-0.0339617,VALID,18.7251,VALID,104,VALID,0.828325,
2007-07-26, 01:25:00,VALID,915.7,VALID,0,VALID,100,VALID,-0.0339617,VALID,18.6735,VALID,99,VALID,0.733232,
2007-07-26, 01:26:00,VALID,915.677,VALID,0,VALID,100,VALID,-0.0169808,VALID,18.6538,VALID,96,VALID,0.950586,
2007-07-26, 01:27:00,VALID,915.647,VALID,0,VALID,100,VALID,-0.0339617,VALID,18.6341,VALID,94,VALID,0.928199,
2007-07-26, 01:28:00,VALID,915.629,VALID,0,VALID,100,VALID,-0.0339617,VALID,18.6278,VALID,94,VALID,0.996838,
2007-07-26, 01:29:01,VALID,915.591,VALID,0,VALID,100,VALID,-0.0509425,VALID,18.6371,VALID,91,VALID,1.13567,
2007-07-26, 01:30:01,VALID,915.576,VALID,0,VALID,100,VALID,-0.0509425,VALID,18.6505,VALID,85,VALID,1.23619,
2007-07-26, 01:31:01,VALID,915.565,VALID,0,VALID,100,VALID,-0.0169808,VALID,18.6765,VALID,87,VALID,1.38782,
2007-07-26, 01:32:00,VALID,915.555,VALID,0,VALID,100,VALID,-0.0509425,VALID,18.7156,VALID,88,VALID,1.47256,
2007-07-26, 01:33:00,VALID,915.556,VALID,0,VALID,100,VALID,-0.0679233,VALID,18.7249,VALID,88,VALID,1.48342,
2007-07-26, 01:34:00,VALID,915.557,VALID,0,VALID,100,VALID,-0.0339617,VALID,18.7573,VALID,90,VALID,1.42206,
2007-07-26, 01:35:00,VALID,915.556,VALID,0,VALID,100,VALID,-0.0339617,VALID,18.793,VALID,101,VALID,1.02998,
2007-07-26, 01:36:00,VALID,915.559,VALID,0,VALID,100,VALID,-0.0169808,VALID,18.822,VALID,104,VALID,0.970385,
2007-07-26, 01:37:01,VALID,915.562,VALID,0,VALID,100,VALID,-0.0339617,VALID,18.8486,VALID,111,VALID,0.895712,
2007-07-26, 01:38:00,VALID,915.565,VALID,0,VALID,100,VALID,-0.0169808,VALID,18.8646,VALID,109,VALID,1.02172,
2007-07-26, 01:39:00,VALID,915.566,VALID,0,VALID,100,VALID,-0.0169808,VALID,18.8806,VALID,113,VALID,1.2191,
2007-07-26, 01:40:01,VALID,915.557,VALID,0,VALID,100,VALID,-0.0169808,VALID,18.8803,VALID,113,VALID,1.38121,
2007-07-26, 01:41:01,VALID,915.54,VALID,0,VALID,100,VALID,-0.0339617,VALID,18.8741,VALID,120,VALID,1.24295,
2007-07-26, 01:42:00,VALID,915.505,VALID,0,VALID,100,VALID,-0.0339617,VALID,18.8447,VALID,124,VALID,1.37062,
2007-07-26, 01:43:00,VALID,915.489,VALID,0,VALID,100,VALID,-0.0169808,VALID,18.806,VALID,127,VALID,1.4782,
2007-07-26, 01:44:00,VALID,915.468,VALID,0,VALID,100,VALID,-0.0509425,VALID,18.7409,VALID,133,VALID,1.48264,
2007-07-26, 01:45:00,VALID,915.449,VALID,0,VALID,100,VALID,-0.0339617,VALID,18.7059,VALID,132,VALID,1.41921,
2007-07-26, 01:46:01,VALID,915.448,VALID,0,VALID,100,VALID,-0.0169808,VALID,18.6466,VALID,127,VALID,1.37277,
2007-07-26, 01:47:00,VALID,915.448,VALID,0,VALID,100,VALID,-0.0339617,VALID,18.6049,VALID,120,VALID,1.4002,
2007-07-26, 01:48:00,VALID,915.445,VALID,0,VALID,100,VALID,-0.0169808,VALID,18.5852,VALID,109,VALID,1.42241,
2007-07-26, 01:49:01,VALID,915.465,VALID,0,VALID,100,VALID,0,VALID,18.5882,VALID,108,VALID,1.23047,
2007-07-26, 01:50:00,VALID,915.452,VALID,0,VALID,100,VALID,-0.0169808,VALID,18.5882,VALID,105,VALID,1.22965,
2007-07-26, 01:51:00,VALID,915.44,VALID,0,VALID,100,VALID,0,VALID,18.5917,VALID,106,VALID,1.24766,
2007-07-26, 01:52:00,VALID,915.435,VALID,0,VALID,100,VALID,0,VALID,18.556,VALID,109,VALID,1.37519,
2007-07-26, 01:53:00,VALID,915.434,VALID,0,VALID,100,VALID,-0.0339617,VALID,18.5266,VALID,107,VALID,1.34889,
2007-07-26, 01:54:01,VALID,915.42,VALID,0,VALID,100,VALID,0,VALID,18.5106,VALID,114,VALID,1.30523,
2007-07-26, 01:55:01,VALID,915.408,VALID,0,VALID,100,VALID,0.0169808,VALID,18.5138,VALID,117,VALID,1.18945,
2007-07-26, 01:56:01,VALID,915.392,VALID,0,VALID,100,VALID,0,VALID,18.5363,VALID,127,VALID,1.42597,
2007-07-26, 01:57:00,VALID,915.385,VALID,0,VALID,100,VALID,-0.0339617,VALID,18.6149,VALID,135,VALID,1.52325,
2007-07-26, 01:58:00,VALID,915.393,VALID,0,VALID,100,VALID,-0.0169808,VALID,18.6857,VALID,139,VALID,1.25451,
2007-07-26, 01:59:01,VALID,915.388,VALID,0,VALID,100,VALID,0,VALID,18.7409,VALID,141,VALID,1.00218,
2007-07-26, 02:00:01,VALID,915.407,VALID,0,VALID,100,VALID,-0.0169808,VALID,18.7538,VALID,149,VALID,1.35795,
2007-07-26, 02:01:01,VALID,915.405,VALID,0,VALID,100,VALID,-0.0339617,VALID,18.7798,VALID,141,VALID,1.44093,
2007-07-26, 02:02:01,VALID,915.413,VALID,0,VALID,100,VALID,-0.0169808,VALID,18.8187,VALID,141,VALID,1.28354,
2007-07-26, 02:03:01,VALID,915.421,VALID,0,VALID,100,VALID,-0.0509425,VALID,18.8349,VALID,148,VALID,1.15443,
2007-07-26, 02:04:01,VALID,915.414,VALID,0,VALID,100,VALID,0,VALID,18.8252,VALID,146,VALID,1.12482,
2007-07-26, 02:05:01,VALID,915.401,VALID,0,VALID,100,VALID,-0.0339617,VALID,18.8319,VALID,135,VALID,0.984375,
2007-07-26, 02:06:01,VALID,915.398,VALID,0,VALID,100,VALID,-0.0169808,VALID,18.8349,VALID,145,VALID,1.01382,
2007-07-26, 02:07:01,VALID,915.379,VALID,0,VALID,100,VALID,-0.0339617,VALID,18.822,VALID,151,VALID,0.740916,
2007-07-26, 02:08:01,VALID,915.368,VALID,0,VALID,100,VALID,0,VALID,18.8057,VALID,130,VALID,1.0564,
2007-07-26, 02:09:00,VALID,915.361,VALID,0,VALID,100,VALID,0,VALID,18.8509,VALID,137,VALID,1.59484,
2007-07-26, 02:10:00,VALID,915.359,VALID,0,VALID,100,VALID,-0.0339617,VALID,18.942,VALID,132,VALID,1.14825,
2007-07-26, 02:11:00,VALID,915.369,VALID,0,VALID,100,VALID,-0.0339617,VALID,19.0034,VALID,126,VALID,1.19231,
2007-07-26, 02:12:00,VALID,915.376,VALID,0,VALID,100,VALID,-0.0169808,VALID,19.0587,VALID,135,VALID,1.34002,
2007-07-26, 02:13:00,VALID,915.382,VALID,0,VALID,100,VALID,-0.0169808,VALID,19.1042,VALID,137,VALID,1.35979,
2007-07-26, 02:14:00,VALID,915.391,VALID,0,VALID,99.9827,VALID,-0.0339617,VALID,19.1658,VALID,139,VALID,1.07158,
2007-07-26, 02:15:00,VALID,915.399,VALID,0,VALID,99.8095,VALID,0,VALID,19.2047,VALID,141,VALID,1.05378,
2007-07-26, 02:16:00,VALID,915.403,VALID,0,VALID,99.6442,VALID,-0.0169808,VALID,19.2274,VALID,137,VALID,0.949049,
2007-07-26, 02:17:00,VALID,915.384,VALID,0,VALID,99.3047,VALID,-0.0169808,VALID,19.2179,VALID,151,VALID,0.750545,
2007-07-26, 02:18:00,VALID,915.356,VALID,0,VALID,99.1038,VALID,-0.0169808,VALID,19.1855,VALID,139,VALID,0.722266,
2007-07-26, 02:19:00,VALID,915.332,VALID,0,VALID,99.1864,VALID,-0.0169808,VALID,19.1528,VALID,146,VALID,0.993164,
2007-07-26, 02:20:00,VALID,915.297,VALID,0,VALID,99.339,VALID,-0.0339617,VALID,19.1204,VALID,138,VALID,1.09189,
2007-07-26, 02:21:00,VALID,915.262,VALID,0,VALID,99.4751,VALID,0,VALID,19.1139,VALID,132,VALID,1.14063,
2007-07-26, 02:22:00,VALID,915.239,VALID,0,VALID,99.6035,VALID,0,VALID,19.1007,VALID,127,VALID,1.20503,
2007-07-26, 02:23:00,VALID,915.217,VALID,0,VALID,99.8222,VALID,-0.0169808,VALID,19.1301,VALID,126,VALID,1.45455,
2007-07-26, 02:24:00,VALID,915.19,VALID,0,VALID,99.84,VALID,-0.0169808,VALID,19.1498,VALID,133,VALID,1.45985,
2007-07-26, 02:25:00,VALID,915.166,VALID,0,VALID,99.6582,VALID,-0.0169808,VALID,19.1725,VALID,130,VALID,1.45313,
2007-07-26, 02:26:00,VALID,915.148,VALID,0,VALID,99.6302,VALID,0,VALID,19.1785,VALID,135,VALID,1.63091,
2007-07-26, 02:27:00,VALID,915.139,VALID,0,VALID,99.5514,VALID,0,VALID,19.2015,VALID,134,VALID,1.4652,
2007-07-26, 02:28:00,VALID,915.124,VALID,0,VALID,99.5094,VALID,-0.0339617,VALID,19.2212,VALID,132,VALID,1.50654,
2007-07-26, 02:29:00,VALID,915.11,VALID,0,VALID,99.292,VALID,0,VALID,19.2374,VALID,124,VALID,1.17587,
2007-07-26, 02:30:00,VALID,915.102,VALID,0,VALID,99.264,VALID,-0.0339617,VALID,19.2504,VALID,125,VALID,1.17595,
2007-07-26, 02:31:00,VALID,915.09,VALID,0,VALID,99.0771,VALID,0,VALID,19.2404,VALID,126,VALID,1.11886,
2007-07-26, 02:32:00,VALID,915.068,VALID,0,VALID,99.1648,VALID,-0.0169808,VALID,19.2012,VALID,120,VALID,1.23438,
2007-07-26, 02:33:00,VALID,915.064,VALID,0,VALID,99.1305,VALID,-0.0169808,VALID,19.182,VALID,116,VALID,1.27115,
2007-07-26, 02:34:00,VALID,915.047,VALID,0,VALID,99.0224,VALID,-0.0849042,VALID,19.1236,VALID,106,VALID,1.1369,
2007-07-26, 02:35:00,VALID,915.042,VALID,0,VALID,99.0478,VALID,0,VALID,19.0717,VALID,108,VALID,1.19247,
2007-07-26, 02:36:00,VALID,915.021,VALID,0,VALID,99.2017,VALID,-0.0509425,VALID,19.0133,VALID,108,VALID,1.19673,
2007-07-26, 02:37:00,VALID,915,VALID,0,VALID,99.4064,VALID,-0.0339617,VALID,18.9679,VALID,105,VALID,1.22256,
2007-07-26, 02:38:00,VALID,914.99,VALID,0,VALID,99.718,VALID,-0.0339617,VALID,18.9417,VALID,98,VALID,1.02695,
2007-07-26, 02:39:00,VALID,914.974,VALID,0,VALID,99.8413,VALID,-0.0339617,VALID,18.9193,VALID,101,VALID,0.915128,
2007-07-26, 02:40:00,VALID,914.95,VALID,0,VALID,99.9413,VALID,-0.0169808,VALID,18.8833,VALID,107,VALID,0.943496,
2007-07-26, 02:41:00,VALID,914.931,VALID,0,VALID,100,VALID,0,VALID,18.8773,VALID,107,VALID,0.950581,
2007-07-26, 02:42:00,VALID,914.907,VALID,0,VALID,99.9977,VALID,-0.0169808,VALID,18.8282,VALID,93,VALID,0.906977,
2007-07-26, 02:43:00,VALID,914.881,VALID,0,VALID,99.9565,VALID,-0.0169808,VALID,18.7733,VALID,80,VALID,0.935417,
2007-07-26, 02:44:00,VALID,914.871,VALID,0,VALID,100,VALID,0,VALID,18.7534,VALID,80,VALID,0.813058,
2007-07-26, 02:45:00,VALID,914.852,VALID,0,VALID,100,VALID,-0.0169808,VALID,18.7374,VALID,80,VALID,0.87718,
2007-07-26, 02:46:00,VALID,914.83,VALID,0,VALID,100,VALID,-0.0339617,VALID,18.7279,VALID,80,VALID,1.03021,
2007-07-26, 02:47:00,VALID,914.836,VALID,0,VALID,100,VALID,0,VALID,18.7409,VALID,84,VALID,1.33949,
2007-07-26, 02:48:00,VALID,914.828,VALID,0,VALID,100,VALID,0,VALID,18.7476,VALID,92,VALID,1.14253,
2007-07-26, 02:49:00,VALID,914.821,VALID,0,VALID,100,VALID,0,VALID,18.7733,VALID,105,VALID,1.05234,
2007-07-26, 02:50:00,VALID,914.826,VALID,0,VALID,100,VALID,-0.0169808,VALID,18.8252,VALID,110,VALID,1.16797,
2007-07-26, 02:51:00,VALID,914.85,VALID,0,VALID,100,VALID,0,VALID,18.8509,VALID,114,VALID,1.24089,
2007-07-26, 02:52:00,VALID,914.859,VALID,0,VALID,100,VALID,-0.0169808,VALID,18.8479,VALID,125,VALID,1.26672,
2007-07-26, 02:53:00,VALID,914.868,VALID,0,VALID,100,VALID,0.0169808,VALID,18.825,VALID,137,VALID,1.41915,
2007-07-26, 02:54:00,VALID,914.882,VALID,0,VALID,100,VALID,0,VALID,18.8282,VALID,140,VALID,1.29173,
2007-07-26, 02:55:00,VALID,914.874,VALID,0,VALID,100,VALID,-0.0169808,VALID,18.8674,VALID,138,VALID,1.09546,
2007-07-26, 02:56:00,VALID,914.867,VALID,0,VALID,100,VALID,0,VALID,18.9063,VALID,138,VALID,1.2629,
2007-07-26, 02:57:00,VALID,914.853,VALID,0,VALID,100,VALID,-0.0169808,VALID,18.9614,VALID,143,VALID,1.15337,
2007-07-26, 02:58:00,VALID,914.842,VALID,0,VALID,100,VALID,0,VALID,19.0038,VALID,144,VALID,1.24414,
2007-07-26, 02:59:00,VALID,914.836,VALID,0,VALID,100,VALID,-0.0169808,VALID,19.0036,VALID,136,VALID,1.36387,
2007-07-26, 03:00:00,VALID,914.837,VALID,0,VALID,100,VALID,-0.0169808,VALID,19.0328,VALID,136,VALID,1.32631,
2007-07-26, 03:01:00,VALID,914.835,VALID,0,VALID,100,VALID,0,VALID,19.0587,VALID,122,VALID,1.56555,
2007-07-26, 03:02:00,VALID,914.861,VALID,0,VALID,99.9499,VALID,-0.0169808,VALID,19.0944,VALID,128,VALID,1.61592,
2007-07-26, 03:03:00,VALID,914.848,VALID,0,VALID,99.7993,VALID,0,VALID,19.1074,VALID,133,VALID,1.52852,
2007-07-26, 03:04:00,VALID,914.844,VALID,0,VALID,99.737,VALID,-0.0339617,VALID,19.1234,VALID,136,VALID,1.35483,
2007-07-26, 03:05:00,VALID,914.852,VALID,0,VALID,99.5031,VALID,-0.0339617,VALID,19.1141,VALID,138,VALID,1.3877,
2007-07-26, 03:06:00,VALID,914.857,VALID,0,VALID,99.5094,VALID,0,VALID,19.0712,VALID,136,VALID,1.24144,
2007-07-26, 03:07:00,VALID,914.855,VALID,0,VALID,99.5666,VALID,-0.0509425,VALID,19.072,VALID,135,VALID,1.13635,
2007-07-26, 03:08:00,VALID,914.865,VALID,0,VALID,99.5857,VALID,-0.0169808,VALID,19.0458,VALID,141,VALID,0.932594,
2007-07-26, 03:09:00,VALID,914.874,VALID,0,VALID,99.5221,VALID,-0.0339617,VALID,19.0168,VALID,150,VALID,0.795833,
2007-07-26, 03:10:00,VALID,914.878,VALID,0,VALID,99.395,VALID,-0.0339617,VALID,18.9549,VALID,156,VALID,0.867188,
2007-07-26, 03:11:00,VALID,914.887,VALID,0,VALID,99.5145,VALID,0,VALID,18.9063,VALID,169,VALID,0.870739,
2007-07-26, 03:12:00,VALID,914.893,VALID,0,VALID,99.7256,VALID,-0.0169808,VALID,18.8572,VALID,162,VALID,1.05246,
2007-07-26, 03:13:00,VALID,914.886,VALID,0,VALID,99.9074,VALID,-0.0339617,VALID,18.7993,VALID,150,VALID,0.779647,
2007-07-26, 03:14:00,VALID,914.902,VALID,0,VALID,99.9756,VALID,-0.0169808,VALID,18.7247,VALID,158,VALID,0.650298,
2007-07-26, 03:15:00,VALID,914.922,VALID,0,VALID,100,VALID,0.0339617,VALID,18.6491,VALID,160,VALID,0.701758,
2007-07-26, 03:16:00,VALID,914.918,VALID,0,VALID,100,VALID,0.0849042,VALID,18.5576,VALID,170,VALID,1.04954,
2007-07-26, 03:17:00,VALID,914.937,VALID,0,VALID,100,VALID,0.101885,VALID,18.4962,VALID,170,VALID,1.07813,
2007-07-26, 03:18:00,VALID,914.944,VALID,0,VALID,100,VALID,0.0339617,VALID,18.4346,VALID,163,VALID,0.770419,
2007-07-26, 03:19:00,VALID,914.934,VALID,0,VALID,100,VALID,0.0679233,VALID,18.3667,VALID,94,VALID,0.345385,
2007-07-26, 03:20:00,VALID,914.946,VALID,0,VALID,100,VALID,0.0679233,VALID,18.2887,VALID,90,VALID,0.265625,
2007-07-26, 03:21:00,VALID,914.955,VALID,0,VALID,100,VALID,0.0509425,VALID,18.24,VALID,74,VALID,0.605564,
2007-07-26, 03:22:00,VALID,914.965,VALID,0,VALID,100,VALID,0.0679233,VALID,18.2009,VALID,58,VALID,0.791295,
2007-07-26, 03:23:00,VALID,914.971,VALID,0,VALID,100,VALID,0.0679233,VALID,18.1916,VALID,65,VALID,0.822621,
2007-07-26, 03:24:00,VALID,914.974,VALID,0,VALID,100,VALID,0.101885,VALID,18.1946,VALID,65,VALID,0.764172,
2007-07-26, 03:25:00,VALID,914.983,VALID,0,VALID,100,VALID,0.0339617,VALID,18.2208,VALID,65,VALID,0.81436,
2007-07-26, 03:26:00,VALID,915.004,VALID,0,VALID,100,VALID,0.0339617,VALID,18.2305,VALID,65,VALID,0.753196,
2007-07-26, 03:27:00,VALID,915.021,VALID,0,VALID,100,VALID,0.0169808,VALID,18.2176,VALID,65,VALID,0.766197,
2007-07-26, 03:28:00,VALID,915.007,VALID,0,VALID,100,VALID,0.0339617,VALID,18.2338,VALID,65,VALID,0.722284,
2007-07-26, 03:29:00,VALID,915.027,VALID,0,VALID,100,VALID,0.0339617,VALID,18.2437,VALID,65,VALID,0.645647,
2007-07-26, 03:30:00,VALID,915.029,VALID,0,VALID,100,VALID,-0.0679233,VALID,18.2646,VALID,76,VALID,0.70476,
2007-07-26, 03:31:00,VALID,915.039,VALID,0,VALID,100,VALID,-0.0339617,VALID,18.2836,VALID,89,VALID,0.56392,
2007-07-26, 03:32:00,VALID,915.046,VALID,0,VALID,100,VALID,-0.101885,VALID,18.2739,VALID,89,VALID,0.409157,
2007-07-26, 03:33:00,VALID,915.059,VALID,0,VALID,100,VALID,-0.0339617,VALID,18.2739,VALID,89,VALID,0.330915,
2007-07-26, 03:34:00,VALID,915.064,VALID,0,VALID,100,VALID,-0.0339617,VALID,18.2836,VALID,89,VALID,0.101172,
2007-07-26, 03:35:00,VALID,915.09,VALID,0,VALID,100,VALID,-0.0679233,VALID,18.2836,VALID,89,VALID,0,
2007-07-26, 03:36:00,VALID,915.088,VALID,0,VALID,100,VALID,-0.0339617,VALID,18.2935,VALID,89,VALID,0,
2007-07-26, 03:37:00,VALID,915.115,VALID,0,VALID,100,VALID,-0.0509425,VALID,18.2933,VALID,89,VALID,0.258956,